Regional Weather Roundup
Issued by NWS

Home | Current Version | Previous Version | Text Only | Print | Product List | Glossary Off
Versions: 1 2 3 4 5 6 7 8 9 10 11 12 13 14 15 16 17 18 19 20 21 22 23 24 25 26 27 28 29 30 31 32 33 34 35 36 37 38 39 40 41 42 43 44 45 46 47 48 49 50

000
ASUS43 KDTX 180801
RWRMI
MICHIGAN HOURLY REGIONAL WEATHER ROUNDUP
NATIONAL WEATHER SERVICE DETROIT/PONTIAC MI
300 AM EST MON DEC 18 2017

NOTE: "FAIR" INDICATES FEW OR NO CLOUDS BELOW 12,000 FEET WITH NO
SIGNIFICANT WEATHER AND/OR OBSTRUCTION TO VISIBILITY.

MIZ047>049-052>055-059>063-066>070-074>076-081>083-180900-
SOUTHEAST LOWER MICHIGAN

CITY           SKY/WX    TMP DP  RH WIND       PRES   REMARKS
ADRIAN         CLOUDY    35  34  96 SW6       30.00S WCI  30
ALMA           CLOUDY    30  29  98 CALM      29.94S FOG
ANN ARBOR      CLOUDY    36  35  96 S9        29.98S FOG     WCI  29
BAD AXE        CLOUDY    26  25  96 S5        29.95S FOG     WCI  20
CARO           CLOUDY    29  28  97 CALM      29.94S FOG
DETROIT CITY   CLOUDY    37  34  89 SW8       29.98S FOG     WCI  31
DETROIT        CLOUDY    39  35  86 SW13      29.99S WCI  31
FLINT          CLOUDY    36  32  85 SW9       29.95S WCI  29
GROSSE ILE     CLOUDY    36  34  92 SW5       29.98F WCI  32
HILLSDALE      CLOUDY    36  34  93 S6        29.96S FOG     WCI  31
HOWELL         CLOUDY    35  34  96 SW5       29.95S FOG     WCI  31

CITY           SKY/WX    TMP DP  RH WIND       PRES   REMARKS
JACKSON        CLOUDY    39  34  82 SW13      29.96S WCI  31
LAMBERTVILLE   CLOUDY    39  34  81 SW8       30.00S WCI  34
LANSING        CLOUDY    36  34  92 SW8       29.95S WCI  30
LAPEER         CLOUDY    32  32 100 SW6       29.95R FOG     WCI  27
MASON          CLOUDY    39  33  81 SW7       29.95S WCI  34
MONROE         CLOUDY    38  33  82 SW7       29.99S WCI  33
MT. CLEMENS    CLOUDY    21  21  99 SW7       29.96R FOG     WCI  13
PONTIAC        CLOUDY    32  32 100 SW5       29.95S FOG     WCI  27
PORT HOPE        N/A     28  25  88 S3        29.94R
PORT HURON     CLOUDY    28  27  93 S3        29.98R FOG
TRI CITIES     CLOUDY    29  28  96 CALM      29.94F FOG
MIDLAND        CLOUDY    29  27  92 CALM      29.94S FOG
TROY           CLOUDY    34  32  95 SW5       29.99S FOG     WCI  29
SAGINAW HB     CLOUDY    28  28 100 CALM      29.94F FOG
$$
MIZ043>046-050>051-056>058-064>065-071>073-077>080-180900-
SOUTHWEST LOWER MICHIGAN

CITY           SKY/WX    TMP DP  RH WIND       PRES   REMARKS
BATTLE CREEK   CLOUDY    38  35  89 SW10      29.95F WCI  31
BENTON HARBOR  CLOUDY    39  35  86 S7        29.95F WCI  34
BIG RAPIDS     CLOUDY    27  26  96 CALM      29.92R FOG
COLDWATER      CLOUDY    38  37  96 SW8       29.97S WCI  32
HOLLAND        CLOUDY    37  35  92 SW3       29.94F FOG
GRAND RAPIDS   CLOUDY    36  34  92 SW8       29.94F FOG     WCI  30
IONIA          CLOUDY    35  33  94 SW7       29.93S WCI  29
KALAMAZOO      CLOUDY    39  35  86 SW8       29.95F WCI  33
LUDINGTON      CLOUDY    29  28  93 SE3       29.91F FOG
MARSHALL       CLOUDY    38  37  98 SW9       29.95F WCI  31
MOUNT PLEASANT FOG       29  28  95 CALM      29.93S VSB 1
MUSKEGON       CLOUDY    38  34  85 SW8       29.94S FOG     WCI  32
SOUTH HAVEN    CLOUDY    43  38  82 SW9       29.94F
$$
MIZ016>042-180900-
NORTHERN LOWER MICHIGAN

CITY           SKY/WX    TMP DP  RH WIND       PRES   REMARKS
ALPENA         CLOUDY    28  28 100 S5        29.93F FOG     WCI  23
BEAVER ISLAND  CLOUDY    31  30  95 SE5       29.89F FOG     WCI  26
BELLAIRE       CLOUDY    28  28 100 S3        29.93R FOG
CADILLAC       FOG       25  25  98 CALM      29.88F VSB 1/4
CHARLEVOIX     CLOUDY    27  27 100 SE3       29.94S FOG
FRANKFORT      CLOUDY    31  31  99 SE5       29.92R FOG     WCI  26
GAYLORD        FOG       24  22  91 SW6       29.88F VSB 3/4 WCI  17
GRAYLING       LGT SNOW  25  23  93 CALM      29.90F VSB 1
HARBOR SPRINGS CLOUDY    26  25  94 NE3       29.91F
HOUGHTON LAKE  FOG       26  24  92 CALM      29.91F VSB 1/4
MANISTEE       MIX PCPN  28  27  96 E3        29.92F VSB 3/4
OSCODA         FOG       29  28  98 CALM      29.93F VSB 1/2
PELLSTON       CLOUDY    26  24  92 SE3       29.91F
ROGERS CITY    CLOUDY    28  26  92 CALM      29.92F FOG
TRAVERSE CITY  CLOUDY    28  26  92 VRB5      29.91S FOG     WCI  23
$$
MIZ007>008-015-180900-
EASTERN UPPER MICHIGAN

CITY           SKY/WX    TMP DP  RH WIND       PRES   REMARKS
MACKINAC ISLAN CLOUDY    29  25  86 S6        29.90F WCI  23
NEWBERRY       FLURRIES  22  21  97 CALM      29.87S
S. S. MARIE    LGT SNOW  22  19  89 E6        29.92S FOG     WCI  14
MUNISING         N/A     26  25  96 SW5       29.86F WCI  20
$$
MIZ004>006-011>014-085-180900-
CENTRAL UPPER MICHIGAN

CITY           SKY/WX    TMP DP  RH WIND       PRES   REMARKS
MANISTIQUE     CLOUDY    30  25  81 CALM      29.88S HAZE
ESCANABA       MIX PCPN  28  26  92 SW3       29.89F
MENOMINEE      CLOUDY    28  27  96 CALM      29.91S
$$
MIZ001>003-009>011-084-180900-
WESTERN UPPER MICHIGAN

CITY           SKY/WX    TMP DP  RH WIND       PRES   REMARKS
IRON MOUNTAIN  CLOUDY    26  23  88 SW3       29.84F
HOUGHTON       CLOUDY    27  22  81 W9        29.81F WCI  18
COPPER HARBOR    N/A     28  24  85 SW7       29.82F WCI  21
IRONWOOD       FLURRIES  25  23  92 SW8       29.84F WCI  16
$$

ABBREVIATIONS USED IN REMARKS
   TC - TEMPERATURE IN CELSIUS
  WCI - WIND CHILL INDEX
   HX - HEAT INDEX
  VSB - VISIBILITY





USA.gov is the U.S. government's official web portal to all federal, state and local government web resources and services.